Theta_e
310 310 310 310 309 309 309 308 307 307 306 306 305 305 305 304 304 304 303 303 303 303 303 303 303 303 303 302 302 302 302 302 302 302 302 302 302 302 302 302 302 302 302 302 301 302 302 302 302 301 301 301 301 301 301 301 301 301 301 300 300 300 300 300 299 299 299 299 299 299 299 299 298 298 298 299 298 298 298 298 298 298 298 298 298 298
310 310 310 310 309 309 308 307 306 306 306 305 305 304 304 304 303 303 303 303 303 302 302 303 303 302 302 302 301 301 301 301 301 301 301 301 301 301 301 301 301 301 301 301 301 301 301 301 301 300 300 300 300 300 300 300 300 300 299 299 299 299 299 299 298 298 298 298 298 298 297 297 296 296 296 296 296 296 296 297 297 297 297 297 297 298
310 310 309 309 308 308 307 306 305 305 305 305 304 304 303 303 303 302 302 302 302 302 302 302 302 302 301 301 301 300 300 300 300 300 300 300 299 299 299 299 299 299 298 298 298 298 298 298 298 298 298 298 298 298 297 297 297 297 297 297 297 297 297 297 297 297 296 296 296 296 295 295 294 294 293 293 293 293 294 295 295 296 296 296 296 296
309 309 308 308 307 306 306 305 305 305 304 304 304 303 303 303 302 302 302 302 301 301 301 301 301 301 300 300 300 299 299 299 298 298 298 298 297 297 297 296 296 295 295 295 295 294 294 294 294 294 294 294 294 294 294 294 293 293 293 293 293 294 294 294 294 294 294 293 293 293 293 292 292 291 291 291 291 291 292 292 293 293 294 294 294 295
309 308 307 307 306 305 305 305 304 304 304 303 303 303 302 302 302 302 301 301 301 301 301 300 300 300 299 299 298 298 297 297 296 296 295 295 295 294 294 293 293 292 292 292 291 291 291 291 291 291 291 291 290 290 290 290 290 290 290 290 290 290 290 290 291 291 291 291 290 290 290 290 290 289 289 289 289 289 290 290 291 291 291 292 292 293
307 306 306 305 305 305 304 304 304 304 303 303 303 302 302 302 301 301 301 301 300 300 299 299 299 298 298 297 296 295 295 294 294 293 293 292 292 292 291 291 290 290 290 290 290 289 289 289 289 289 289 289 289 288 288 288 288 288 288 288 288 288 288 288 289 289 289 289 288 288 288 288 288 288 288 288 288 288 288 289 289 289 289 290 290 291
306 305 305 305 304 304 304 304 303 303 303 302 302 302 302 301 301 300 300 300 299 299 298 297 296 296 295 294 294 293 292 292 291 291 291 291 290 290 290 290 289 289 289 289 289 289 288 288 288 288 288 288 288 288 288 288 288 288 288 288 288 288 288 288 288 288 288 288 288 288 288 288 287 287 287 287 287 287 287 287 287 288 288 288 289 289
305 304 304 304 304 303 303 303 303 302 302 302 301 301 301 301 300 299 299 298 297 296 296 295 294 293 292 292 291 291 290 290 290 290 290 290 289 289 289 289 289 289 289 288 288 288 288 288 288 288 288 288 288 288 288 288 288 288 288 288 288 288 288 288 288 288 288 288 288 287 287 287 287 287 287 287 287 286 286 286 286 287 287 287 287 287
304 304 303 303 303 303 302 302 302 301 301 301 300 300 300 299 299 298 297 296 295 294 293 292 291 291 291 290 290 290 289 289 289 289 289 289 289 289 289 289 289 289 288 288 288 288 288 288 288 288 288 288 288 288 288 288 288 288 288 288 288 288 288 288 287 287 287 287 287 287 287 287 287 287 287 287 286 286 286 286 286 286 286 287 287 287
303 303 303 302 302 302 302 301 301 300 300 300 299 299 298 298 297 296 295 294 293 292 291 291 290 290 290 289 289 289 289 289 288 288 288 288 288 288 288 288 288 288 288 288 288 288 288 288 288 288 288 288 288 288 288 288 288 288 288 287 287 287 287 287 287 287 287 287 287 287 287 287 287 287 286 286 286 286 286 286 286 286 286 286 286 287
302 302 301 301 301 301 301 300 300 300 299 299 298 298 297 296 295 293 292 292 291 291 291 290 290 289 289 288 288 288 288 288 288 288 288 288 288 288 288 288 288 288 288 288 288 288 288 288 288 288 288 287 287 287 287 287 287 287 287 287 287 287 287 287 287 287 287 287 287 287 287 287 286 286 286 286 286 286 286 286 286 286 286 286 286 287
301 300 300 300 300 300 299 299 299 298 298 297 296 295 294 293 292 291 291 290 290 290 289 289 289 288 288 288 288 288 288 288 288 288 288 288 288 288 288 288 288 288 288 288 288 288 288 288 288 287 287 287 287 287 287 287 287 287 287 287 287 287 287 287 287 287 287 287 287 287 287 286 286 286 286 286 286 286 286 286 286 286 286 286 286 287
300 299 299 299 298 298 298 297 297 296 296 294 294 293 292 291 290 290 289 289 288 288 288 288 288 288 288 288 288 288 288 288 288 288 288 288 288 288 288 288 288 288 288 288 288 288 288 288 287 287 287 287 287 287 287 287 287 287 287 287 287 287 287 287 287 287 287 287 287 287 287 287 286 286 286 286 286 286 286 286 286 286 286 286 287 287
299 298 298 297 297 296 295 295 294 294 293 292 291 291 290 290 289 289 288 288 288 288 288 288 287 287 287 288 288 288 288 288 288 288 288 288 288 288 288 288 288 288 288 288 288 288 288 288 287 287 287 287 287 287 287 287 287 287 287 287 287 287 287 287 287 287 287 287 287 287 287 287 287 287 286 286 286 286 286 286 286 286 286 287 287 287
297 297 296 295 295 294 293 293 292 291 291 290 290 289 289 289 288 288 288 288 288 287 287 287 287 287 287 288 288 289 289 289 289 289 288 287 287 288 288 288 288 288 287 287 288 288 288 288 288 287 287 287 287 287 287 287 287 286 286 287 287 287 287 287 288 288 288 288 287 287 287 287 287 287 287 287 286 286 286 286 287 287 287 287 287 287
296 295 294 293 293 292 291 291 290 290 290 289 289 289 288 288 288 288 288 287 287 287 287 287 287 286 286 287 288 289 289 289 289 288 288 287 287 287 288 288 288 287 287 287 287 288 288 288 288 288 287 287 287 287 287 287 287 287 287 287 287 288 288 288 288 288 288 288 288 288 288 287 287 287 287 287 287 287 287 287 287 287 287 287 287 288
293 293 292 292 291 291 290 290 290 289 289 289 289 288 288 288 288 287 287 287 287 287 287 287 287 287 286 287 288 288 288 288 288 288 288 287 287 287 288 288 287 287 287 287 287 288 288 288 288 288 288 288 287 287 287 287 287 287 287 288 288 288 288 288 288 288 288 288 288 288 288 288 288 288 288 288 288 288 288 288 288 288 288 288 288 288
291 291 291 290 290 290 290 289 289 289 289 289 288 288 288 288 287 287 287 287 287 287 287 287 287 287 286 286 287 288 288 288 288 288 287 287 287 287 288 288 287 287 287 287 288 288 288 288 288 288 288 288 288 288 287 287 288 288 288 288 288 288 288 289 289 289 288 288 288 288 288 288 288 288 288 288 288 288 288 288 288 288 288 288 288 288
290 290 290 289 289 289 289 289 289 288 288 288 288 288 288 287 287 287 287 287 287 287 287 287 287 287 287 286 286 287 288 288 288 288 287 287 286 287 287 287 287 287 287 287 288 288 288 288 288 288 288 288 288 288 288 288 288 288 288 288 288 289 289 289 289 289 289 289 288 288 288 288 288 288 288 288 288 288 288 288 288 288 288 288 288 288
289 289 289 289 289 289 289 288 288 288 288 288 288 288 288 287 287 287 287 287 287 287 287 287 287 287 287 286 286 287 287 288 288 287 287 287 286 287 287 287 287 287 287 287 288 288 288 288 288 288 288 288 288 288 288 288 288 288 288 288 288 288 289 289 289 289 289 289 289 289 288 288 288 288 288 288 288 288 288 288 288 288 288 288 289 289
289 289 288 288 288 288 288 288 288 288 288 288 287 287 287 287 287 287 287 287 287 287 287 287 287 287 287 287 287 287 287 287 287 287 287 287 286 287 287 287 287 287 287 287 288 288 288 288 288 288 288 288 288 288 289 289 289 289 288 288 288 288 288 289 289 289 289 289 289 288 288 288 288 288 288 288 288 288 288 288 288 288 288 289 289 289
288 288 288 288 288 288 288 288 288 288 287 287 287 287 287 287 286 286 286 286 286 287 287 286 287 287 287 287 287 287 287 287 287 287 287 287 286 286 287 287 288 288 288 288 288 288 288 288 289 289 289 289 289 289 289 289 289 289 289 289 288 288 288 288 288 289 288 288 288 288 288 288 288 288 288 288 288 288 288 288 288 288 288 288 288 289
288 288 288 288 288 287 287 287 287 287 287 287 286 286 286 286 286 286 286 286 286 286 286 286 286 286 286 287 287 287 287 287 287 287 287 287 286 286 287 287 288 288 288 288 288 288 288 289 289 289 289 289 289 289 289 289 289 289 289 289 289 289 288 288 288 288 288 288 288 288 288 288 288 288 288 288 288 288 288 288 288 288 288 288 288 289
287 287 287 287 287 287 287 287 287 287 287 286 286 286 286 286 286 286 286 286 286 286 286 286 286 286 286 287 287 287 287 287 287 287 287 287 287 286 287 288 288 288 288 288 288 289 289 289 289 289 289 289 289 289 289 289 289 289 289 289 289 289 289 288 288 288 288 288 288 288 288 288 288 288 288 288 288 288 288 288 288 288 288 288 288 288
287 287 287 287 286 286 286 287 287 287 286 286 286 286 286 286 286 286 286 286 286 286 286 286 286 286 286 286 287 287 287 287 287 287 287 287 287 287 287 288 288 288 288 288 288 288 289 289 289 289 289 289 289 289 289 289 289 289 289 289 289 289 289 289 288 288 288 288 288 288 288 288 288 288 288 288 288 288 288 288 288 288 288 288 288 289
287 287 286 286 286 286 286 286 286 286 286 286 286 286 286 286 286 286 286 286 286 286 286 286 286 286 286 286 287 287 288 287 287 287 287 287 287 287 287 288 288 289 289 288 288 288 289 289 289 289 289 289 289 289 289 289 289 289 289 289 289 289 289 289 289 288 288 288 288 288 288 288 288 288 288 288 288 288 288 288 288 288 288 288 288 289
287 287 287 286 286 286 286 286 286 286 286 286 286 286 286 286 286 286 286 286 286 286 286 287 287 286 286 286 286 286 287 287 287 287 287 287 287 287 288 288 288 289 289 288 288 288 288 289 289 289 289 289 289 289 289 289 289 289 289 289 289 289 289 289 289 289 288 288 288 288 288 288 288 288 288 288 288 288 288 288 288 288 288 288 289 289
287 287 287 287 287 286 286 286 286 286 286 286 286 286 286 286 286 286 286 286 286 286 286 286 286 286 286 286 286 286 286 287 287 287 287 287 287 288 288 288 288 288 289 289 288 288 288 288 289 288 289 288 288 288 288 288 288 288 289 289 289 289 289 289 289 289 289 289 289 288 288 288 288 288 288 288 288 288 288 288 288 288 288 289 289 289
287 287 287 287 287 287 286 286 286 286 286 286 286 286 286 286 286 286 286 286 286 286 286 286 286 286 286 286 286 285 285 286 287 287 287 287 287 288 288 288 288 288 288 289 289 288 288 288 289 289 288 288 288 288 288 288 288 288 288 289 289 289 289 289 289 289 289 289 289 289 289 289 288 288 288 288 288 288 288 288 288 288 289 289 289 289
286 287 287 287 287 286 286 286 286 286 286 286 286 286 286 286 286 286 286 286 286 286 286 286 285 285 285 286 286 285 285 286 286 287 287 287 287 287 287 287 288 288 288 288 289 288 288 288 288 289 288 288 288 288 288 288 288 288 288 288 288 288 289 289 289 289 289 289 289 289 289 289 289 289 289 289 289 289 289 289 289 289 289 289 289 289
287 287 287 287 287 286 286 286 286 286 286 286 286 286 286 286 286 286 286 286 286 286 286 285 285 285 285 285 285 285 285 285 286 287 287 287 287 287 287 287 287 287 288 288 288 288 288 288 288 288 288 288 287 287 287 287 288 288 288 288 288 288 288 288 289 289 289 289 289 289 289 289 289 289 289 289 289 289 289 289 289 289 289 289 289 289
287 288 287 287 287 287 287 287 286 286 286 286 286 286 286 286 286 286 286 286 286 286 286 286 285 285 285 285 285 284 284 285 286 286 286 286 287 287 287 287 287 287 287 287 287 287 287 287 288 288 288 287 287 287 287 287 288 288 288 288 288 288 288 288 288 288 289 289 289 289 289 289 289 289 289 289 289 289 289 289 289 289 289 289 289 289
287 287 287 287 287 287 287 287 287 286 286 286 286 286 286 286 286 286 286 286 286 286 286 286 285 285 285 285 285 284 284 284 285 286 286 286 287 287 287 287 287 287 287 287 287 287 287 288 288 288 288 288 288 288 288 288 288 288 288 288 288 288 288 288 288 288 288 288 289 289 289 289 289 289 289 289 289 289 289 289 289 289 289 289 289 289
286 286 286 286 286 286 287 287 286 286 286 286 286 286 286 286 286 286 286 286 286 286 286 285 285 285 285 285 285 284 283 284 285 286 286 287 287 287 287 287 287 287 287 287 287 287 288 288 288 288 289 289 288 288 288 288 288 288 288 288 288 288 288 288 288 288 288 288 288 289 289 289 289 289 289 289 289 289 289 289 289 289 289 289 289 289
286 286 286 286 286 286 286 286 286 286 286 286 286 286 286 286 286 286 286 286 286 286 286 285 285 285 285 285 285 284 283 283 284 286 286 286 287 287 287 287 287 287 287 287 287 287 287 288 288 288 288 289 289 288 288 288 288 288 288 288 288 288 288 288 288 288 288 288 288 288 288 289 289 289 289 289 289 289 289 289 289 289 289 289 289 289
286 286 286 286 286 286 286 286 286 286 286 286 286 286 286 286 286 286 286 286 286 285 285 285 285 285 285 285 285 284 283 283 284 285 286 286 286 287 287 287 287 287 287 287 287 287 287 288 288 288 288 289 289 288 288 288 288 288 287 287 287 287 287 287 287 288 288 288 288 288 288 288 288 289 289 289 289 289 289 289 289 289 289 289 289 289
286 286 286 286 286 286 286 286 286 286 286 286 286 286 286 286 286 286 286 285 285 285 285 285 285 285 285 285 285 284 284 284 284 285 285 286 286 287 287 287 287 287 287 287 287 287 287 288 288 288 288 288 288 288 288 288 288 288 288 287 287 287 287 287 287 287 287 288 288 288 288 288 288 288 288 288 288 289 289 289 289 289 289 289 288 288
286 286 286 286 286 286 286 286 286 286 286 286 286 286 286 286 286 286 285 285 285 285 285 285 285 284 285 285 284 284 284 284 285 285 285 286 286 287 287 287 287 286 286 287 287 287 287 287 288 288 288 288 288 288 288 288 288 288 288 288 288 287 287 287 287 287 287 287 288 288 288 288 288 288 288 288 288 288 288 288 288 288 288 288 288 288
286 286 286 286 286 286 286 286 286 286 286 286 286 286 286 286 286 286 285 285 285 285 285 285 285 284 284 284 285 285 285 285 285 285 286 286 286 286 286 287 287 287 286 287 287 287 287 287 288 288 288 288 288 288 288 288 288 288 288 288 288 288 287 287 287 287 287 287 287 287 287 287 288 288 288 288 288 288 288 288 288 288 288 288 288 288
286 286 286 286 286 286 286 286 286 286 286 286 286 286 286 286 286 286 285 285 285 285 285 285 285 285 285 285 285 285 285 285 285 285 286 286 286 286 286 286 287 286 286 287 287 287 287 287 287 288 288 288 288 288 288 288 288 288 288 288 288 288 288 287 287 287 287 287 287 287 287 287 287 287 287 287 288 288 288 288 288 287 287 287 288 288
286 286 286 286 286 286 286 286 286 286 286 286 286 286 286 286 286 286 286 286 286 285 285 285 285 285 285 285 285 285 285 285 285 286 286 286 286 286 286 286 286 286 286 287 287 287 287 287 287 287 287 288 288 288 288 288 288 287 288 288 288 288 288 287 287 287 287 287 287 287 287 287 287 287 287 287 287 287 287 287 287 287 287 287 287 287
286 286 286 286 286 286 286 286 286 286 286 286 286 286 286 286 286 286 286 286 286 286 286 286 285 285 285 285 285 285 285 285 286 286 286 286 286 286 286 286 286 286 287 287 287 287 287 287 287 287 287 287 287 288 288 288 287 287 287 287 287 287 287 287 287 287 287 287 287 287 287 287 287 287 287 287 287 287 287 287 287 287 287 287 287 287
286 286 286 286 286 286 286 286 286 286 286 286 286 286 286 286 286 286 286 286 285 285 285 285 285 285 285 285 285 285 285 286 286 286 286 286 286 286 286 286 286 286 287 287 287 287 287 287 287 287 287 287 287 287 287 287 287 287 287 287 287 287 287 287 287 287 287 287 286 286 286 286 287 287 287 287 287 287 287 287 287 286 286 286 286 286
286 286 286 286 286 286 286 286 286 286 286 286 286 286 286 286 286 286 286 285 285 285 285 285 285 285 285 285 285 285 285 286 286 286 286 286 286 286 286 286 286 286 287 287 287 287 287 287 287 287 287 287 287 287 287 287 287 287 287 286 286 286 287 286 286 286 286 286 286 286 286 286 286 286 286 286 286 287 287 287 286 286 286 286 286 286
286 286 286 286 286 286 286 286 286 285 285 286 285 285 285 285 285 285 285 285 285 285 285 285 285 285 286 285 285 285 285 286 286 286 286 286 286 286 286 286 286 286 286 287 287 287 287 287 287 287 286 286 287 287 287 287 287 286 286 286 286 286 286 286 286 286 286 286 285 285 285 285 285 285 286 286 286 286 286 286 286 286 286 286 286 286
286 286 286 286 286 286 286 285 285 285 285 285 285 285 285 285 285 285 285 285 285 285 285 285 285 285 286 286 285 285 285 286 286 286 286 286 286 286 286 286 286 286 286 286 286 287 287 287 287 286 286 286 286 287 287 286 286 286 286 286 286 286 286 285 285 285 285 285 285 285 285 285 285 285 285 285 285 286 286 286 286 286 286 286 286 286
285 285 285 285 285 285 285 285 285 285 285 285 285 285 285 285 285 285 285 285 285 285 285 285 285 285 285 285 285 285 286 286 286 286 286 286 286 286 286 286 286 286 286 286 286 286 286 286 286 286 286 286 286 287 286 286 286 286 286 286 285 285 285 285 285 285 285 285 285 284 284 284 285 285 285 285 285 285 285 285 285 285 285 285 285 285
285 285 285 285 285 285 285 285 285 285 285 285 285 285 285 285 285 285 285 285 285 285 285 285 285 285 285 285 285 285 286 286 286 286 286 286 286 286 286 286 286 286 286 286 286 286 286 286 286 286 286 286 286 286 286 286 286 285 285 285 285 285 285 285 285 285 285 285 285 285 285 284 284 284 284 285 285 285 285 285 285 285 285 285 285 285
285 285 285 285 285 285 285 285 285 285 285 285 285 285 285 285 285 285 285 285 285 285 285 285 285 285 285 285 285 285 285 285 286 286 286 286 285 285 285 285 285 286 286 286 286 286 286 286 286 286 286 286 286 286 286 286 286 285 285 285 285 285 285 285 285 285 285 285 285 285 284 284 284 284 284 284 284 284 285 285 285 285 285 285 285 284
285 285 285 285 285 285 285 285 285 285 285 285 285 285 285 285 285 285 285 285 285 285 285 285 285 285 285 285 285 285 285 285 285 285 285 285 285 285 285 285 285 285 285 285 286 286 286 286 286 286 286 286 286 286 286 286 285 285 285 285 285 284 284 285 285 285 284 284 284 284 284 283 283 283 283 283 283 283 284 284 284 284 284 284 284 284
285 285 285 285 285 285 285 285 285 285 285 285 285 285 285 284 284 284 285 285 285 285 285 285 285 285 285 285 285 285 285 285 285 285 285 285 285 285 285 285 285 285 285 285 286 285 285 286 286 286 286 286 286 285 285 285 285 285 285 285 285 284 284 284 284 284 284 284 283 283 283 282 282 282 282 282 282 282 283 283 283 284 284 284 284 284
Wind_Speed
22 22 21 20 19 18 17 16 15 14 13 12 12 11 11 10 10 9 8 8 8 8 8 8 8 7 8 8 9 10 10 10 11 11 11 12 12 12 12 12 13 13 13 14 14 14 15 15 15 16 16 16 17 17 17 17 17 17 17 17 17 17 17 17 17 17 17 17 17 18 18 19 19 20 20 20 20 19 19 19 19 19 19 19 18 16
22 21 21 20 18 17 15 14 12 12 12 11 11 11 10 10 9 9 8 8 8 9 9 9 9 8 8 9 10 10 11 11 11 12 12 12 13 13 13 13 14 14 14 14 15 15 15 15 16 16 16 17 17 17 18 18 18 18 18 18 18 18 18 18 18 18 18 18 19 19 19 19 19 19 19 19 19 19 19 19 20 20 19 18 17 17
21 20 20 18 17 15 13 12 11 11 11 11 11 10 10 9 9 8 8 8 9 9 10 10 10 9 9 10 10 11 11 12 12 13 13 13 14 14 14 14 14 14 15 15 15 16 16 16 16 17 17 17 17 18 18 18 18 18 18 18 18 19 19 19 19 19 19 19 19 19 19 19 19 19 19 19 19 19 19 20 20 20 19 18 18 17
20 19 18 16 14 12 11 11 11 11 11 11 11 11 10 9 9 9 9 9 10 10 11 12 12 11 11 11 12 12 12 13 13 13 14 14 14 14 14 14 14 15 15 15 15 16 16 16 16 17 17 17 17 17 17 18 18 18 18 18 18 18 19 19 19 19 19 19 19 19 19 19 18 18 18 18 19 19 19 20 20 20 19 18 18 17
18 16 15 13 12 11 11 11 11 11 11 11 11 11 10 10 10 10 10 11 11 12 13 14 14 14 13 13 13 13 14 14 14 14 14 15 15 14 14 14 14 15 15 15 15 15 15 16 16 16 16 16 16 17 17 17 17 17 17 17 18 18 18 18 19 19 19 19 19 19 19 18 18 18 18 18 18 19 19 19 19 19 18 18 17 17
15 13 12 11 10 10 11 11 11 11 11 11 11 11 10 10 10 10 11 11 12 13 14 14 15 15 15 15 14 14 14 14 14 14 15 15 14 14 14 14 14 15 15 15 15 15 15 15 16 16 16 16 16 16 16 17 17 17 17 17 17 17 17 18 18 18 18 18 18 18 18 18 18 18 18 18 18 18 18 18 18 18 17 17 16 16
12 11 11 10 10 11 11 11 11 11 11 12 12 11 11 11 11 11 12 12 13 14 14 15 16 16 16 15 15 14 14 14 14 14 14 14 14 14 14 14 14 14 15 15 15 15 15 16 16 16 16 16 16 16 16 17 17 17 17 17 17 17 17 17 18 18 18 18 18 18 18 18 18 18 18 18 18 18 18 18 17 17 17 16 16 15
11 11 10 10 10 11 11 11 11 12 12 12 13 12 12 12 12 12 13 13 14 14 14 15 15 16 15 15 14 14 13 13 13 14 14 14 14 14 14 14 14 14 14 14 15 15 15 16 16 16 16 16 16 16 17 17 17 16 16 16 16 16 17 17 17 18 18 18 18 19 19 19 18 18 18 17 17 17 17 17 17 17 16 16 15 15
11 10 10 10 10 11 11 11 12 12 12 13 13 13 13 13 14 14 14 14 14 14 13 13 13 14 14 14 13 13 13 13 13 13 14 14 14 14 14 14 14 14 14 14 14 15 15 15 15 15 15 15 16 16 16 16 16 16 16 16 16 16 16 16 17 17 17 18 18 19 19 19 19 18 18 17 16 16 16 16 16 16 15 15 14 13
10 10 10 11 11 11 11 11 12 13 13 13 13 13 13 13 14 15 15 15 15 14 13 12 11 11 12 13 13 13 13 13 13 13 13 13 13 14 14 14 14 13 13 14 14 14 14 15 15 15 15 15 15 15 16 16 16 16 15 15 15 15 15 16 16 16 17 17 18 18 18 18 18 18 17 17 16 15 15 15 15 15 14 14 13 12
10 10 10 11 11 11 12 12 13 13 13 13 14 14 14 14 14 14 14 14 14 14 13 12 11 11 11 12 13 13 13 13 13 13 13 13 13 13 13 13 13 13 12 13 13 13 14 14 14 14 14 14 14 15 15 15 15 15 15 15 15 15 15 15 15 15 16 16 17 17 17 17 17 17 16 16 15 15 15 14 14 14 13 13 12 12
11 10 11 11 12 12 12 13 13 14 14 14 14 14 14 13 12 12 11 12 14 14 14 13 12 12 12 12 12 12 12 12 12 11 11 11 12 12 13 12 12 12 11 12 12 12 13 13 13 13 13 13 13 14 14 14 14 14 14 14 14 14 14 14 14 14 15 15 15 16 16 16 16 16 15 15 14 14 14 14 13 13 12 12 12 11
11 11 11 12 13 13 13 13 13 14 14 14 14 14 13 11 10 11 11 12 13 14 14 13 12 12 13 12 12 12 11 11 10 10 9 10 11 12 12 12 11 11 11 11 11 12 12 12 12 12 12 12 12 13 13 13 13 14 13 13 13 13 13 13 13 13 13 13 14 14 14 14 14 14 14 14 13 13 13 13 12 12 11 11 11 11
12 12 12 13 13 13 14 14 13 13 14 14 13 12 11 11 11 11 11 12 13 14 13 12 11 11 12 12 11 11 10 10 9 8 8 9 10 11 11 11 11 10 11 11 11 11 11 11 11 11 11 11 11 11 12 12 12 12 12 12 12 12 12 12 12 12 12 12 12 12 12 13 13 13 12 12 12 12 11 11 11 11 11 11 11 10
13 13 13 13 13 13 13 13 13 13 13 12 11 11 11 12 12 12 12 12 13 13 13 12 11 11 12 12 11 10 10 10 9 8 8 9 10 11 11 11 10 10 10 10 11 10 10 10 10 10 10 10 10 10 10 11 11 11 11 11 11 11 11 11 10 10 11 11 11 11 11 11 11 11 11 11 10 10 10 10 10 10 9 10 10 10
13 13 13 13 13 13 13 13 13 12 12 11 11 11 12 12 12 12 12 12 12 13 12 11 10 9 10 11 11 11 10 11 10 9 8 8 10 11 10 10 10 10 10 10 10 10 10 9 9 9 9 9 9 9 9 10 10 10 10 10 10 10 10 10 10 10 10 10 10 10 10 10 10 10 10 9 9 9 9 9 9 8 9 9 9 9
12 12 12 13 13 13 13 12 12 12 11 11 12 12 12 12 12 12 12 12 12 12 12 11 10 9 8 10 11 11 11 11 10 9 8 8 9 10 10 10 10 9 9 10 10 10 9 9 9 9 8 8 8 8 9 9 9 10 10 10 10 10 10 9 9 9 9 9 10 10 10 10 10 10 9 9 9 9 8 8 8 8 8 8 8 8
11 11 12 12 13 13 13 12 12 12 12 12 12 12 12 12 12 12 12 12 12 11 11 11 10 9 8 9 10 11 11 11 10 9 8 8 9 10 10 9 9 9 9 9 9 9 9 9 9 8 8 8 8 8 8 8 9 9 10 10 10 10 10 9 9 9 9 9 10 10 10 10 10 10 9 9 9 9 9 8 8 8 8 9 9 9
11 11 12 12 13 13 13 13 13 13 13 13 12 12 12 11 11 11 11 11 11 11 10 10 9 9 8 8 9 11 11 10 10 9 8 8 8 9 9 9 9 8 8 8 9 9 9 9 8 8 8 8 8 8 8 8 9 9 9 10 10 10 10 10 10 10 10 10 10 10 10 10 10 10 10 10 10 9 9 9 9 9 9 9 9 10
11 11 12 13 13 14 14 14 13 13 13 12 12 11 11 10 10 10 10 10 10 10 10 10 9 9 8 7 8 9 10 10 10 9 8 7 8 9 8 8 8 7 7 8 9 9 9 9 9 8 8 8 7 8 8 8 8 9 9 10 10 10 10 10 10 10 10 10 10 10 10 10 10 10 10 10 10 10 10 10 10 10 10 10 10 10
11 11 12 12 13 14 15 14 13 12 11 11 11 11 10 10 10 10 10 11 11 10 10 9 9 9 8 8 8 8 10 10 10 9 8 7 7 8 8 8 7 7 6 7 8 9 9 9 9 8 8 8 8 8 8 8 8 9 9 9 10 10 10 10 11 11 11 11 10 10 10 11 11 11 11 11 11 11 11 11 11 11 11 11 11 10
11 11 11 12 13 13 14 14 12 11 10 10 11 11 10 10 10 11 11 11 11 11 10 9 9 9 9 8 8 9 9 9 9 9 8 6 6 7 8 7 7 7 6 7 8 9 9 9 9 9 8 8 8 8 8 8 8 9 9 9 10 10 10 10 11 11 11 11 11 11 11 11 11 11 11 12 12 12 12 12 12 11 11 11 11 11
10 10 10 11 11 12 12 12 11 10 9 10 10 10 10 10 10 10 10 10 10 10 10 9 9 9 9 9 8 8 8 8 8 9 8 6 5 6 7 7 7 7 7 7 8 8 9 9 9 9 9 8 8 8 8 8 9 9 9 9 9 10 10 10 11 11 11 11 11 11 11 11 11 12 12 12 12 12 12 12 12 12 12 12 12 12
9 9 8 9 10 10 11 11 11 10 9 9 10 10 10 10 10 10 10 10 10 10 10 9 9 8 8 8 7 7 7 7 8 8 8 7 6 6 7 7 7 6 6 7 8 8 9 9 9 9 9 9 8 8 8 8 8 9 9 9 9 10 10 11 11 11 11 12 12 12 12 12 12 12 12 12 12 12 12 13 13 13 13 13 13 14
9 8 8 8 9 10 11 11 10 10 10 9 9 9 9 9 9 9 9 9 10 10 9 9 7 7 7 7 7 7 7 6 7 7 8 7 6 5 7 7 7 7 7 7 8 9 9 9 10 9 9 9 8 8 8 8 8 8 9 9 9 10 10 10 11 11 12 12 12 12 12 12 13 13 13 13 13 13 13 13 13 14 14 14 14 15
9 8 8 8 9 9 10 10 10 10 10 9 9 9 9 9 9 9 9 9 9 9 9 8 7 6 6 7 7 7 7 6 5 6 7 7 7 6 7 8 8 8 7 7 8 9 9 9 10 10 9 9 8 8 8 8 8 8 9 9 9 10 10 10 11 11 12 12 12 13 13 13 13 13 13 13 13 14 14 14 14 14 15 15 16 16
8 9 9 9 9 9 9 10 10 10 9 9 9 9 9 9 9 9 8 9 9 9 9 8 7 7 7 7 7 7 8 7 6 6 6 7 8 8 8 8 9 9 8 8 8 9 10 10 9 9 9 8 8 8 8 9 9 9 9 9 9 10 10 10 11 11 12 12 12 13 13 13 13 14 14 14 14 14 14 15 15 15 16 16 16 17
9 9 9 9 9 9 9 9 9 9 9 9 9 9 9 9 8 8 8 8 9 9 9 9 8 7 7 7 6 7 8 8 7 6 6 8 9 9 9 9 9 9 9 9 9 9 10 10 9 8 8 8 8 9 9 10 10 10 10 10 10 10 10 10 11 11 11 12 12 13 13 13 14 14 14 14 15 15 15 15 16 16 16 17 17 17
9 9 9 9 9 9 9 8 8 8 9 9 9 9 9 9 8 8 8 9 9 9 9 9 8 8 8 8 7 7 7 8 7 7 7 9 9 9 9 9 9 10 10 10 10 10 10 9 8 8 8 9 9 10 10 11 11 11 11 11 11 11 11 11 11 11 12 12 12 13 13 13 14 14 14 14 15 15 15 16 16 16 17 17 17 17
9 9 9 9 9 8 8 8 8 8 8 9 9 9 9 9 9 8 9 9 9 9 9 9 8 8 8 8 8 7 7 7 7 8 8 10 10 10 9 9 10 10 11 12 13 13 12 10 9 9 10 10 11 11 12 12 12 12 12 12 12 12 12 12 12 12 12 12 13 13 13 13 14 14 14 15 15 15 15 16 16 17 17 17 17 17
9 9 9 8 8 8 8 8 8 8 8 8 9 9 9 9 9 9 9 9 9 9 9 8 8 8 8 9 9 9 7 7 7 8 8 10 10 10 9 10 10 10 11 12 14 14 13 12 12 12 12 12 12 13 12 12 12 12 11 11 11 12 12 12 13 13 13 13 13 14 14 14 14 15 15 15 15 16 16 16 17 17 17 17 17 17
9 9 8 8 8 8 7 7 7 7 7 8 8 8 8 9 9 9 9 9 9 9 9 8 8 8 8 8 9 9 9 8 8 8 9 10 10 10 9 10 10 11 11 11 13 13 12 14 14 14 13 13 13 12 12 12 11 11 11 10 10 11 11 12 13 13 14 14 14 14 15 15 15 15 16 16 16 16 17 17 17 17 18 18 18 18
10 9 9 9 8 8 8 8 7 7 8 8 8 8 8 8 9 9 9 9 9 9 9 9 8 8 8 8 8 8 9 10 10 9 9 10 10 10 10 10 11 11 12 12 12 13 13 15 16 15 14 13 12 12 12 12 11 11 10 10 10 10 11 11 12 13 14 14 15 15 15 15 16 16 16 17 17 17 17 17 17 18 18 18 18 18
10 10 10 9 9 9 9 9 8 8 8 8 8 8 8 8 9 9 9 9 8 8 9 9 9 9 9 9 8 8 8 10 11 11 9 10 10 10 10 10 11 12 13 13 14 14 15 15 16 16 16 14 13 12 12 12 12 11 11 10 10 10 10 11 11 12 13 14 14 15 15 15 16 16 16 16 17 17 17 17 17 18 18 18 18 18
10 10 10 10 10 10 10 10 9 9 9 9 9 8 8 8 8 9 9 8 8 8 8 9 9 9 9 9 9 8 8 10 11 11 10 10 11 11 11 11 12 12 13 14 15 16 16 16 16 17 17 16 14 13 12 12 12 12 12 11 11 11 11 11 11 12 12 13 14 14 15 15 15 16 16 16 16 17 17 17 17 17 17 17 18 18
10 9 9 10 10 10 10 10 9 9 9 9 9 8 8 8 8 8 8 8 8 8 8 9 9 9 9 10 9 9 8 10 11 11 11 10 11 11 12 12 12 13 14 15 16 16 17 17 17 17 17 17 16 14 13 13 12 12 12 11 11 11 11 11 11 11 12 12 13 14 14 15 15 16 16 16 16 16 16 17 17 17 17 17 17 17
9 9 9 10 10 10 10 10 9 9 9 9 9 8 8 8 8 8 8 8 8 9 9 9 9 10 10 10 10 9 9 10 11 11 11 11 11 11 12 12 13 13 14 15 16 17 17 18 17 17 17 16 16 16 14 13 12 12 11 11 10 10 10 10 10 11 11 11 12 13 14 15 15 15 16 16 16 16 16 17 17 17 17 17 17 17
9 9 9 10 10 10 10 9 9 9 9 9 9 9 8 8 8 8 8 8 8 8 9 9 10 10 10 10 10 10 10 10 11 11 11 11 12 12 13 13 14 14 14 15 16 16 17 17 18 17 17 17 16 16 15 14 13 12 11 11 10 10 10 10 10 10 10 11 11 12 13 14 14 15 16 16 16 17 17 17 17 17 18 18 18 18
9 9 9 10 10 11 10 10 9 9 9 9 9 9 8 8 8 8 8 8 8 8 9 9 10 10 10 10 10 10 10 11 11 11 12 12 12 12 13 14 14 15 15 15 16 16 16 17 17 17 17 17 16 15 15 14 14 13 13 12 11 10 10 10 10 10 10 10 10 11 11 12 13 14 15 16 17 17 17 17 18 18 18 18 18 18
10 10 10 10 11 11 11 10 10 9 10 10 10 9 9 9 8 8 9 9 9 9 9 9 10 10 10 10 10 11 11 11 11 11 11 12 12 13 13 14 15 15 15 16 16 16 16 16 16 17 17 17 16 16 15 14 14 14 14 13 12 11 11 10 10 10 10 10 10 10 10 11 12 13 14 15 16 17 17 18 18 18 18 18 18 18
11 11 11 11 11 11 11 10 10 10 10 10 10 10 9 9 9 9 9 9 9 9 9 9 10 10 10 11 11 11 11 11 11 11 11 12 12 13 13 14 15 15 16 16 16 16 15 15 16 16 16 16 16 15 14 14 14 14 14 14 13 13 12 11 11 10 10 10 10 10 10 10 11 12 13 14 15 16 17 17 18 18 18 18 18 18
12 11 11 11 11 11 11 10 10 10 10 10 10 10 10 10 10 10 10 9 9 9 10 10 10 11 11 11 11 11 11 11 11 11 11 12 12 13 14 14 15 15 15 16 16 16 15 15 15 15 15 15 15 15 14 13 13 14 14 14 14 13 12 11 11 11 10 10 10 10 10 10 11 11 12 13 14 15 16 17 17 17 17 17 18 18
12 12 12 12 12 11 11 11 11 10 11 11 11 11 10 10 10 10 10 10 10 10 10 11 11 11 11 11 11 11 11 11 11 11 11 12 12 13 14 14 15 15 15 15 15 15 15 15 14 14 14 14 14 14 14 14 14 13 14 14 14 14 13 12 11 11 11 10 10 10 10 11 11 11 12 12 13 14 15 16 16 17 17 17 17 17
12 12 12 12 12 12 11 11 11 11 11 11 11 11 11 11 11 11 11 11 11 11 11 11 12 12 12 11 11 11 11 11 11 11 11 11 12 13 13 14 14 15 15 15 15 15 15 15 15 14 14 14 14 14 14 14 14 14 13 14 14 14 13 13 13 12 12 12 11 11 11 12 12 12 12 13 13 14 15 15 16 16 17 17 17 17
13 13 13 13 12 12 12 11 11 12 12 12 11 11 11 11 11 11 11 11 11 11 12 12 12 12 12 11 11 11 11 11 11 11 11 11 11 12 13 13 14 14 14 15 15 15 15 15 15 15 15 15 15 15 15 15 15 15 14 14 13 13 14 14 14 14 13 13 13 13 13 13 14 14 14 14 14 15 15 16 16 17 17 17 18 17
13 13 13 13 13 13 12 12 12 12 12 12 12 11 12 12 12 12 11 11 12 12 12 13 13 13 13 12 11 11 11 12 12 12 11 11 11 11 12 13 13 14 14 15 15 15 15 15 15 16 16 16 16 15 15 16 16 15 15 14 14 14 14 14 14 14 14 14 14 14 14 14 15 15 16 16 16 16 16 16 17 17 18 18 18 18
14 14 14 14 14 13 13 13 13 13 13 12 12 12 12 12 12 12 12 12 12 12 13 13 14 13 13 12 12 12 12 13 13 13 12 12 11 11 11 12 13 13 14 15 15 16 16 16 16 16 16 17 17 17 16 16 16 16 15 15 15 15 15 15 15 15 15 15 15 15 15 16 16 17 17 18 18 17 17 17 17 17 18 18 19 19
14 14 14 14 14 14 14 14 14 14 13 13 13 12 12 12 12 12 12 12 13 13 13 14 14 14 13 13 13 13 13 13 14 13 13 13 12 12 12 12 12 13 14 15 15 16 16 17 17 17 17 17 18 18 18 17 16 16 16 16 16 16 16 16 15 15 15 15 16 17 17 18 19 20 20 20 21 20 19 18 18 18 18 18 19 19
15 15 15 15 15 14 14 14 14 14 14 14 13 13 13 13 13 13 13 13 13 13 13 14 14 14 14 13 13 13 13 14 14 14 14 13 13 13 13 13 13 14 14 15 16 16 17 17 18 17 17 17 18 19 19 17 16 16 16 16 17 17 17 17 16 16 17 17 18 19 20 20 21 21 22 23 24 25 24 22 21 20 19 19 19 19
15 15 16 16 15 15 15 15 14 14 14 14 14 14 14 13 13 13 13 13 14 14 14 14 14 15 14 14 13 13 14 14 15 15 14 14 13 14 14 14 14 14 15 16 16 17 18 19 19 18 17 17 17 18 18 18 17 16 16 16 16 17 17 17 18 18 19 20 21 21 22 22 22 22 23 24 26 27 27 26 24 23 21 20 20 20
15 15 16 16 16 16 15 15 15 15 15 15 15 14 14 14 14 14 14 14 14 14 14 15 15 15 15 15 14 14 14 15 15 15 15 14 14 14 14 14 15 15 16 16 17 18 19 20 21 20 18 16 15 16 17 17 17 17 17 17 17 17 17 18 19 20 21 21 22 22 22 22 22 23 23 24 25 27 28 28 26 24 22 20 20 19
Wind_Direction
279 282 285 286 286 285 284 283 282 280 278 275 272 270 269 267 267 268 272 276 280 282 284 286 288 293 295 294 294 294 294 295 296 296 296 296 296 296 295 295 295 295 295 294 293 292 292 291 290 290 290 289 289 289 290 290 290 290 290 290 289 289 288 288 286 285 283 282 281 281 282 283 284 284 284 283 282 281 278 277 276 276 276 275 271 263
280 283 285 286 286 284 281 280 277 273 271 270 267 265 263 262 264 267 272 276 279 281 283 285 288 290 291 290 290 290 290 291 292 292 293 293 293 293 293 293 293 293 293 292 291 290 289 288 288 287 287 287 287 287 287 287 287 287 287 287 286 286 286 285 285 284 283 282 282 282 283 282 282 281 281 280 279 276 274 273 273 273 273 271 268 263
279 282 283 284 283 281 277 274 270 266 264 262 260 258 257 258 261 264 268 272 276 279 281 283 285 286 286 285 285 286 287 288 288 289 290 290 291 291 291 291 291 291 291 290 289 288 287 286 286 285 285 284 284 284 284 284 284 284 283 283 283 283 282 282 282 281 281 281 282 282 282 281 279 278 277 276 274 273 271 271 271 271 271 270 267 262
279 280 281 280 278 273 268 264 262 260 257 255 253 252 253 254 257 261 265 269 274 278 281 283 284 284 284 284 285 286 287 288 288 288 289 289 289 290 290 291 291 290 289 289 288 287 286 285 284 284 283 282 282 282 282 282 282 281 281 281 281 281 281 280 280 279 279 280 280 280 280 279 277 276 274 272 271 270 270 270 270 271 270 269 266 262
279 278 276 272 267 262 258 256 256 255 254 251 250 250 251 254 257 262 267 272 276 280 283 285 286 286 286 286 286 287 288 289 289 289 289 289 289 290 290 291 291 290 289 289 288 288 287 286 285 284 283 283 282 282 282 281 282 282 282 282 282 282 281 281 281 280 280 280 280 280 279 279 277 275 273 271 270 270 270 270 271 271 270 269 266 262
277 273 266 260 254 250 250 251 252 252 252 251 250 251 252 256 260 265 270 274 277 280 283 286 287 288 287 287 288 288 288 288 288 288 288 288 288 289 289 290 290 290 290 290 290 290 289 288 287 287 286 285 285 284 284 284 283 283 283 283 283 283 283 283 283 282 282 282 282 281 281 280 279 277 275 273 272 271 270 271 271 271 270 269 267 264
268 262 254 249 247 246 248 249 251 251 250 251 251 253 255 259 264 268 272 275 278 279 281 284 286 287 288 288 288 287 287 287 286 286 286 286 286 287 288 289 289 289 290 291 291 291 290 290 289 289 288 288 288 287 286 285 285 285 285 284 284 284 284 284 284 284 284 284 284 284 284 283 282 281 279 277 275 273 272 271 271 271 271 270 269 267
256 252 248 245 245 248 249 249 250 251 252 253 255 258 261 264 268 270 273 275 277 279 280 282 284 286 288 289 289 289 288 288 287 287 287 288 289 289 290 290 290 290 291 291 291 291 290 290 289 289 290 289 289 288 287 286 286 286 285 285 285 284 284 284 284 285 285 285 285 285 285 285 285 284 282 281 278 276 274 272 272 271 271 271 271 270
248 248 249 247 247 248 250 251 252 253 255 257 260 265 269 272 275 276 277 277 277 277 278 279 282 285 289 291 292 291 291 291 291 291 291 292 293 293 293 292 292 292 292 292 291 290 290 289 290 290 290 290 289 288 288 287 287 287 286 286 285 285 284 284 284 284 284 284 285 285 286 286 286 286 285 284 282 279 276 274 273 272 271 271 271 270
246 248 251 252 251 250 251 252 255 257 258 261 264 268 272 275 279 281 283 283 281 279 278 279 281 285 289 291 292 293 293 293 292 292 293 294 295 295 294 293 293 293 293 292 291 290 290 290 291 291 291 290 290 289 289 289 288 288 288 287 287 286 285 285 284 284 284 284 284 284 285 285 286 287 286 285 283 281 278 276 274 272 271 270 269 266
249 251 253 253 254 253 252 252 255 258 261 263 267 270 273 275 276 278 279 281 284 285 285 285 286 287 288 288 289 291 292 292 292 292 294 295 296 295 295 294 294 295 294 293 291 290 291 291 292 292 292 291 290 290 290 290 289 289 289 289 288 288 287 286 285 285 284 284 283 283 284 284 285 285 285 284 282 280 278 276 274 273 271 268 265 262
254 255 255 255 255 255 255 254 255 258 261 264 266 268 269 272 274 272 270 273 278 283 287 290 293 292 290 289 289 289 289 289 290 292 294 296 296 296 296 296 297 297 296 294 293 292 293 294 294 294 293 292 291 291 291 290 290 290 290 290 290 289 289 288 287 286 285 284 284 284 283 283 283 283 282 281 280 278 276 275 273 271 268 265 262 259
259 259 258 257 257 257 257 257 258 260 262 264 265 266 268 270 271 270 268 269 273 278 285 290 294 294 291 290 290 290 289 289 290 293 296 297 297 296 296 297 299 300 298 297 296 296 297 298 298 297 296 295 294 292 292 291 291 291 291 291 291 291 290 290 289 288 287 286 286 285 284 284 283 282 281 280 278 277 275 273 271 268 264 261 259 255
261 261 260 259 258 259 259 259 259 261 263 266 270 274 277 274 271 269 269 270 274 280 286 289 291 290 289 290 291 291 291 292 294 297 301 302 300 298 298 299 301 302 301 300 300 301 302 303 302 301 300 299 297 296 294 293 292 292 292 292 292 292 292 292 291 291 290 289 288 287 287 286 285 283 282 280 278 276 274 271 268 265 262 259 256 253
261 262 261 260 259 259 259 260 261 264 268 272 276 279 278 276 274 273 274 275 278 282 286 289 289 288 288 290 292 294 295 297 300 304 307 307 303 299 300 302 304 305 304 304 305 306 307 307 307 307 306 305 303 300 298 296 295 294 293 293 293 294 294 294 294 293 292 291 291 290 290 289 287 286 284 282 280 276 273 270 267 264 261 258 256 253
262 261 260 259 259 259 259 262 265 269 273 276 276 276 275 276 277 279 280 281 281 283 285 287 288 287 285 289 293 297 299 300 303 306 309 311 305 300 301 304 306 308 308 307 308 309 310 311 311 311 311 310 308 305 302 299 297 296 295 296 296 296 297 297 297 296 295 294 293 293 292 291 291 290 288 286 282 278 274 270 266 262 259 257 256 255
259 257 255 255 255 257 261 265 269 272 275 274 273 273 273 276 279 281 281 281 282 283 285 287 288 285 280 284 291 297 299 300 302 305 309 312 306 302 304 306 309 311 311 310 309 310 312 313 314 314 315 314 312 309 306 303 300 299 298 298 298 299 299 300 299 298 297 296 295 294 293 292 292 291 290 287 284 280 276 271 266 262 259 257 255 255
254 252 251 249 251 256 262 265 269 271 273 273 273 275 276 277 279 279 280 281 282 283 286 288 289 288 283 283 290 297 299 300 301 305 310 313 308 305 306 309 311 312 312 311 310 311 313 315 316 317 318 317 315 312 308 304 302 300 299 300 301 301 301 302 301 300 298 297 295 294 293 292 291 291 289 288 285 282 278 273 268 263 260 258 256 255
250 249 248 248 253 260 265 266 267 269 271 273 277 279 279 279 278 279 280 281 283 285 288 290 291 291 292 291 293 296 301 301 303 306 312 316 312 307 309 311 313 313 313 313 312 313 314 316 317 318 319 318 315 312 308 304 302 300 300 300 301 302 302 302 302 300 299 297 296 294 293 292 290 289 288 287 285 283 280 276 272 267 264 261 260 259
251 249 249 251 256 261 264 265 268 271 274 279 282 283 283 283 283 284 285 286 287 289 290 292 293 294 295 295 294 296 300 302 303 306 313 319 315 311 311 313 314 316 317 315 314 313 315 316 318 318 319 318 315 311 307 303 301 299 299 299 300 300 301 301 300 299 298 297 295 294 293 291 290 288 287 286 285 284 282 280 276 273 270 268 266 266
254 252 252 256 258 259 263 267 273 277 280 283 284 284 285 287 289 290 290 291 291 291 292 293 294 294 294 295 294 295 299 301 304 306 313 319 319 315 314 315 317 319 320 318 315 315 315 317 317 319 319 318 315 310 306 302 300 299 298 297 297 297 297 297 297 297 296 295 294 292 291 290 289 288 286 285 285 284 283 282 280 278 276 275 273 271
255 254 255 259 261 263 268 274 278 280 281 283 284 286 288 290 291 291 290 290 290 291 291 292 292 293 294 294 294 296 300 302 304 306 311 319 324 322 316 318 321 324 324 320 317 315 316 316 317 319 320 319 315 310 307 303 301 299 297 295 294 293 293 293 293 292 292 291 291 290 288 287 286 285 284 283 283 282 282 281 280 279 278 277 275 273
258 259 260 262 265 269 272 275 277 278 279 282 286 288 287 288 288 287 287 287 287 287 287 288 290 292 293 294 295 298 301 303 303 304 309 320 331 329 320 320 324 327 328 323 319 316 316 316 318 319 320 319 315 312 308 305 303 300 297 294 292 290 289 289 288 288 288 288 287 286 285 283 282 282 281 280 280 280 279 278 278 277 276 275 274 273
260 262 264 264 265 267 269 272 274 276 276 278 280 281 283 284 285 286 287 287 287 285 285 287 288 289 290 291 291 291 295 297 297 299 306 318 330 332 324 322 324 328 330 327 322 318 317 317 318 319 320 318 315 313 311 309 306 303 299 296 292 289 287 286 285 285 284 284 283 283 282 281 280 279 279 278 278 278 277 277 276 275 275 274 274 274
257 258 258 256 257 260 263 268 271 274 276 277 278 280 282 283 284 284 284 284 283 283 283 284 283 281 281 285 286 286 291 293 295 300 308 318 330 337 328 324 324 328 333 330 324 319 319 319 319 319 319 317 317 317 316 314 311 307 304 299 296 292 289 286 284 283 282 281 281 280 279 279 278 277 277 277 276 276 276 275 275 275 274 274 274 274
253 252 249 249 251 255 260 265 270 274 277 280 282 283 282 282 282 282 282 281 280 280 281 280 277 277 282 290 295 300 302 302 302 305 312 317 327 335 329 324 323 325 330 331 326 322 321 321 320 318 318 318 319 320 319 317 314 311 307 303 299 295 292 288 285 283 281 280 279 278 277 277 276 276 275 275 274 274 274 273 273 273 273 273 273 273
254 254 253 252 253 256 261 266 271 276 280 282 283 282 281 280 281 282 283 281 280 281 283 283 283 286 293 300 307 311 311 314 314 312 311 315 321 326 328 325 322 322 324 328 327 325 323 322 320 318 317 319 322 322 320 318 314 310 307 303 300 297 294 290 287 284 282 280 278 277 276 275 274 274 273 273 272 272 272 272 272 272 272 272 272 273
258 258 258 259 259 261 264 269 273 277 280 281 280 279 278 278 279 279 279 278 279 282 285 289 293 298 303 306 309 310 312 316 318 315 307 311 315 320 325 323 322 321 321 324 326 325 322 319 317 317 318 321 323 322 319 315 312 308 306 302 299 296 293 290 287 285 282 280 278 277 275 274 273 272 272 271 271 271 271 270 270 270 270 271 272 272
263 263 265 266 267 268 270 273 274 276 276 276 275 275 275 275 275 274 271 274 277 281 284 291 297 301 303 304 305 306 307 311 313 310 303 305 310 315 320 321 321 320 320 320 323 324 320 317 317 320 322 324 324 322 318 314 311 308 305 303 299 296 292 289 287 284 282 280 278 277 275 274 273 272 271 271 270 270 269 269 269 269 270 270 271 271
263 265 267 268 270 271 272 272 271 270 270 269 269 269 270 270 271 270 270 273 275 278 283 288 293 296 298 301 302 303 302 303 302 302 301 301 304 310 314 317 319 320 321 321 324 327 324 320 321 325 327 327 326 323 319 316 313 310 307 304 300 297 293 290 287 284 281 280 278 277 275 274 273 272 271 270 270 269 269 269 269 269 269 270 270 270
263 263 264 265 266 266 265 264 263 262 262 263 264 265 265 265 266 267 269 271 274 277 280 284 287 290 293 296 298 299 300 296 294 294 297 297 300 305 311 314 317 319 321 322 325 327 326 321 320 324 327 327 325 323 319 316 314 312 309 305 301 298 294 291 289 286 283 281 279 277 275 274 273 272 271 270 270 269 269 269 269 269 270 270 270 270
276 275 273 272 271 270 268 266 264 263 264 264 265 264 264 264 264 265 267 270 273 275 278 280 283 285 289 292 294 295 297 293 290 290 291 293 297 303 309 312 314 317 318 320 321 321 321 318 318 320 323 324 323 321 318 316 315 313 311 307 302 299 296 293 291 288 286 284 281 279 277 275 274 272 271 271 270 269 269 269 270 270 270 271 271 271
286 287 287 286 285 283 282 280 278 276 274 272 271 270 268 267 266 266 267 268 271 273 276 277 279 282 285 288 291 293 294 292 290 289 291 293 296 301 307 310 313 314 316 317 316 316 315 316 317 319 321 324 325 324 321 320 320 319 317 313 308 303 299 295 292 290 288 286 284 282 280 278 276 274 272 271 271 270 270 270 270 271 271 272 272 272
284 286 287 287 287 286 285 284 283 280 278 275 274 273 271 270 269 268 268 269 271 272 274 276 277 279 281 283 286 288 287 284 285 289 292 294 297 301 306 309 312 314 315 316 316 316 315 316 318 319 321 325 328 328 326 325 326 326 324 321 316 310 304 300 296 292 289 288 286 285 283 281 279 277 275 273 272 272 271 271 271 272 272 272 272 272
277 279 281 282 282 282 282 281 280 278 276 274 272 271 271 270 270 270 270 270 271 272 273 273 274 276 278 279 283 284 279 276 280 286 292 294 298 301 304 308 311 313 314 315 316 316 316 317 319 320 321 324 328 330 328 328 330 330 329 326 322 317 311 306 301 296 293 290 288 286 285 284 282 280 279 277 275 274 273 272 272 272 272 273 273 273
276 277 277 277 277 277 277 277 276 275 273 271 269 268 267 267 268 268 269 269 269 270 270 271 271 272 274 276 278 279 275 272 276 283 289 293 296 300 302 306 309 311 312 313 314 315 315 316 318 319 320 323 326 329 329 330 331 332 331 328 325 320 315 310 306 301 297 293 290 288 287 285 285 284 282 280 278 277 275 274 273 273 273 273 273 274
276 276 275 274 274 274 273 273 272 271 270 269 267 265 263 263 264 264 265 265 265 266 267 268 268 269 270 272 274 275 274 273 276 281 287 291 294 297 300 304 307 309 310 311 312 313 313 314 316 318 320 322 325 327 330 331 331 332 331 329 326 322 317 313 310 306 301 297 293 290 288 287 286 285 284 283 281 279 277 276 274 274 273 273 273 274
274 273 273 272 272 272 272 270 269 269 268 268 267 265 262 261 261 261 261 261 262 262 263 265 266 268 269 271 272 273 274 274 276 279 284 288 292 295 298 301 304 305 307 307 308 309 310 312 314 316 319 321 323 326 329 331 332 332 331 330 329 327 323 320 316 313 308 303 298 293 290 288 287 286 286 284 283 281 279 277 275 274 274 274 274 274
272 271 272 272 272 272 271 271 270 270 269 269 268 267 264 262 262 262 262 262 262 261 262 263 265 267 269 271 272 273 273 273 275 278 281 284 288 291 295 298 300 302 303 303 304 305 307 309 311 313 316 319 321 324 327 330 331 331 330 330 331 331 331 328 325 321 316 311 306 300 296 292 289 287 286 285 284 282 280 278 277 276 275 275 274 274
272 271 272 272 272 272 272 273 273 273 272 271 271 270 270 270 269 268 267 267 266 265 265 266 266 267 269 270 270 271 271 271 272 274 276 279 283 287 291 295 297 299 300 300 301 302 303 305 307 310 313 316 318 322 325 330 332 332 331 331 333 335 335 333 330 326 322 318 313 307 301 296 291 288 286 284 284 283 282 281 280 279 278 277 276 275
276 275 274 273 273 274 275 276 276 276 275 275 276 276 277 277 277 275 274 272 271 270 269 268 268 268 268 268 267 267 267 267 268 270 272 276 280 284 288 292 294 296 297 298 298 299 300 301 303 306 309 312 315 318 324 329 333 333 332 332 332 333 333 333 332 330 327 323 318 313 307 301 296 291 288 286 285 285 285 286 286 285 283 281 279 278
280 279 278 278 278 280 280 279 278 278 277 278 279 279 279 279 278 277 277 276 274 273 271 269 268 266 264 263 263 264 264 265 266 268 271 275 280 284 287 289 291 293 294 294 295 296 297 299 301 304 307 310 313 317 323 328 331 332 332 331 330 328 329 331 332 331 329 325 321 316 312 307 302 298 295 292 290 289 289 289 289 289 288 286 285 284
284 283 282 282 283 283 282 281 280 279 278 278 278 278 278 277 277 276 275 275 273 271 269 268 267 265 263 261 259 260 260 262 263 266 269 273 278 282 285 287 289 290 291 292 293 294 295 297 299 302 305 308 311 316 321 325 328 330 330 329 328 328 329 330 330 328 326 323 320 318 314 310 306 302 298 295 293 291 290 290 290 290 290 290 290 289
288 287 286 285 284 283 282 281 280 279 278 277 276 276 276 275 274 273 273 272 271 269 268 267 266 265 264 262 260 259 259 260 261 262 266 270 275 280 283 286 287 288 289 289 290 292 294 295 297 299 302 305 309 313 318 321 324 327 328 327 326 327 327 328 327 325 322 320 318 317 314 310 306 302 299 295 293 290 289 288 289 290 291 291 292 292
290 288 287 285 284 282 281 279 278 276 275 274 274 275 274 273 272 271 271 270 269 269 268 268 268 267 267 266 264 263 262 263 263 263 265 269 274 278 282 284 285 286 287 287 288 289 290 291 293 296 299 302 305 310 314 318 321 323 324 324 324 323 323 324 324 323 321 320 318 317 315 311 308 304 300 296 293 291 289 289 289 289 290 291 292 293
290 288 286 284 282 280 278 276 274 273 273 272 273 273 273 272 271 270 269 269 269 269 269 269 269 270 271 271 270 269 268 268 269 269 271 273 275 278 280 281 282 282 283 283 284 284 285 287 289 292 295 298 302 306 311 316 319 321 321 321 320 320 320 322 323 323 322 321 320 319 317 313 310 307 303 298 293 290 289 288 289 289 289 289 290 291
289 286 283 281 279 277 275 274 273 272 272 272 273 273 272 272 271 271 269 269 268 269 269 270 271 272 273 275 275 275 274 274 274 275 278 280 282 282 281 280 280 279 279 279 279 280 281 283 285 289 294 298 301 305 310 314 317 318 319 318 318 318 318 320 322 322 322 322 322 322 321 319 316 313 310 305 299 295 292 291 290 289 289 288 289 289
286 284 281 279 277 275 274 273 273 272 272 273 273 272 272 271 271 271 270 269 268 268 269 270 271 272 274 275 276 276 277 277 278 280 283 286 289 289 288 284 281 279 278 277 277 277 278 279 281 285 291 296 300 304 308 311 314 315 315 316 316 317 317 319 320 321 321 322 323 324 325 324 323 321 318 314 310 306 303 301 298 296 295 294 292 291
286 284 282 280 278 276 275 274 273 272 272 272 272 272 272 271 270 270 270 269 269 269 270 270 271 272 273 273 273 274 274 276 278 280 283 287 290 291 291 289 285 282 279 278 277 277 278 278 280 283 287 293 298 302 305 308 310 311 311 313 315 316 317 318 319 321 322 323 324 326 326 326 325 324 321 317 314 312 311 309 308 306 304 303 301 298
287 286 284 283 281 279 278 276 275 274 273 272 271 271 271 270 270 269 269 269 270 270 271 271 272 272 273 272 271 271 271 273 276 279 282 285 287 288 289 288 285 283 281 280 279 280 282 282 283 285 288 292 296 300 303 305 306 307 308 311 313 315 316 316 318 320 322 323 324 325 325 324 322 321 318 314 312 311 310 310 310 310 309 308 307 304
289 287 287 286 285 283 281 279 277 275 274 272 271 271 270 270 270 270 270 270 270 271 271 271 271 272 272 273 272 271 271 273 275 278 281 284 285 286 286 285 284 282 281 280 281 282 284 286 287 289 291 294 298 300 301 303 305 306 308 310 312 314 313 314 316 318 320 321 321 321 319 317 314 312 310 308 307 306 306 306 307 308 309 309 308 307